Flag for Canada Weather past 2 weeks in Caledon, Ontario, Canada

Now
63 °F

Overcast.


Feels Like: 63 °F
Forecast: 58 / 79 °F
Wind: 2 mph from South

Location: Borden

Current Time: May 25, 2015 at 2:09:43 AM

Latest Report: May 25, 2015 at 1:00 AM


Visibility: 9 mi

Pressure: 30.13 "Hg

Humidity: 68%

Dew point: 52 °F

Location of CaledonLocation

Historic Weather in Caledon — Graph

°F

Caledon temperature yesterday

Maximum temperature yesterday: 81 °F (at 2:00 PM)
Minimum temperature yesterday: 55 °F (at 12:00 AM)
Average temperature yesterday: 69 °F

Past Weeks' High & Low Weather Summary

 TemperatureHumidityPressure
High86 °F (May 18, 3:00 PM)100% (May 10, 12:00 AM)30.50 "Hg (May 10, 12:00 AM)
Low27 °F (May 14, 4:00 AM)20% (May 24, 2:00 PM)29.72 "Hg (May 12, 1:00 AM)
Average55 °F69%30.09 "Hg
* Reported Midnight between May 9 and May 10 — May 25 12:59 AM, Caledon, Weather by CustomWeather, © 2015

Note: Actual official high and low records may vary slightly from our data, if they occured in-between our weather recording intervals... More about our weather records

Advertising

Caledon weather history for previous 24 hours

 ConditionsComfort  
Time TempWeatherWind HumidityBarometerVisibility
12:59 AM
Mon, May 25
63 °FOvercast.No wind73%30.14 "Hg9 mi
12:00 AM66 °FOvercast.No wind49%30.12 "Hg9 mi
11:00 PM
Sun, May 24
68 °FPassing clouds.2 mph46%30.14 "Hg9 mi
10:00 PM70 °FClear.7 mph46%30.13 "Hg9 mi
9:00 PM68 °FSunny.2 mph49%30.11 "Hg9 mi
8:00 PM73 °FSunny.3 mph36%30.12 "Hg9 mi
7:00 PM77 °FPassing clouds.8 mph30%30.13 "Hg9 mi
6:00 PM77 °FSunny.5 mph30%30.14 "Hg9 mi
5:00 PM79 °FSunny.9 mph28%30.14 "Hg9 mi
4:00 PM81 °FSunny.13 mph20%30.15 "Hg9 mi
3:00 PM81 °FSunny.14 mph21%30.17 "Hg9 mi
2:00 PM81 °FPassing clouds.8 mph20%30.18 "Hg9 mi
1:00 PM79 °FSunny.9 mph21%30.20 "Hg9 mi
12:00 PM77 °FSunny.9 mph22%30.20 "Hg9 mi
11:00 AM75 °FPassing clouds.7 mph29%30.20 "Hg9 mi
10:00 AM72 °FSunny.8 mph31%30.21 "Hg9 mi
9:00 AM68 °FSunny.8 mph35%30.23 "Hg9 mi
8:00 AM64 °FSunny.8 mph37%30.25 "Hg9 mi
7:00 AM61 °FSunny.5 mph39%30.24 "Hg9 mi
6:00 AM57 °FClear.9 mph44%30.22 "Hg9 mi
5:00 AM57 °FClear.6 mph41%30.21 "Hg9 mi
4:00 AM55 °FClear.2 mph44%30.20 "Hg9 mi
3:00 AM57 °FClear.8 mph41%30.21 "Hg9 mi
2:00 AM57 °FClear.8 mph41%30.21 "Hg9 mi
Weather by CustomWeather, © 2015

See weather overviewHow to use our weather pages